STARLINK-2436

operational
NORAD ID: 48101 Int'l Des: 2021-027 Owner: SPXS Country: US Constellation: starlink
LEOCIRCULARSTARLINK_TYPE

Über STARLINK-2436

Beschreibung wird geladen...

Live-Position

3D-Globus wird geladen...

Nächste Überflüge

Höhenverlauf

Altitude vs Time

uPlot chart will show altitude changes over time

Zweizeiliger Elementsatz

1 48101U 21027K 25251.73429916 .00000272 00000-0 37180-4 0 9996
2 48101 53.0548 258.6526 0001285 88.1617 271.9519 15.06395813245132
Epoch: 8. Sept. 2025 • Age: 17 hours

Aktueller Status

Höhe 547.2 km
Geschwindigkeit 7.59 km/s
Subsatellitenpunkt 9.44°N, 74.67°W
Startdatum 7. Apr. 2021
Alter 4.4 years
Typ internet

Technische Details

Klassifizierung Payload
Masse 260.00 kg
Trockenmasse 248.00 kg
Gesamtmasse 260.00 kg
Länge 0.20 m
Durchmesser 2.80 m
Spannweite 9.00 m
Form Box + pan
Hersteller SPXS
Bus-Typ Starlink
Phasenstatus In Orbit
Besitzer/Staat SPXS/US

Große Konstellationen

Loading constellations...